[[{"header":{"parameterUnit":"m.s-1","parameterCategory":1,"la1":30.2991,"la2":30.254,"lo1":-89.0895,"lo2":-89.0444,"dx":0.0017,"dy":0.0017,"nx":28,"ny":28,"refTime":"2022-12-16T09:00:00:Z","depth":0,"parameterNumber":2,"parameterNumberName":"U-component_of_WINDS"},"data":[0,0,0,0,0,0,0,0,0,0,0,0,0,0,0,0,0,0,0,0,0,0,0,0,0,0,0,0,0,0,0,0,0,0,0,0,0,0,0,0,0,0,0,0,0,0,0,0,0,0,0,0,0,0,0,0,0,0,1.4467,1.4468,0,1.4509,1.4509,1.451,1.4481,1.4479,1.4478,1.4477,1.452,1.4522,1.4524,0,0,0,0,0,0,0,0,0,0,0,0,0,1.4363,1.4365,1.4467,1.4468,1.4468,1.4509,1.4509,1.451,1.4481,1.4479,1.4478,1.4476,1.4519,1.4522,1.4524,0,0,0,0,0,0,0,0,0,0,0,0,0,1.4407,1.4366,1.4467,1.4459,1.4458,1.4509,1.4509,1.451,1.4481,1.4479,1.4477,1.4475,1.4518,1.4521,1.4525,1.4586,0,0,1.4536,1.4537,0,0,0,0,0,0,0,0,1.4404,1.4411,1.4459,1.4459,1.4459,1.4488,1.4488,1.4536,1.4482,1.4472,1.4477,1.4474,1.451,1.4514,1.4527,1.4588,1.459,1.4536,1.4538,1.454,1.4541,0,0,0,0,0,0,0,1.4401,1.4409,1.4484,1.446,1.446,1.4453,1.4457,1.4497,1.4502,1.4473,1.4471,1.4476,1.451,1.4523,1.4527,1.459,1.4536,1.4539,1.4541,1.4542,1.4705,1.4708,0,0,0,0,0,0,1.4399,1.4406,1.4482,1.4485,1.4426,1.4456,1.4461,1.448,1.4501,1.4503,1.4478,1.4475,1.4518,1.4523,1.4529,1.4603,1.454,1.4543,1.4545,1.4703,1.4706,1.4708,0,0,0,0,0,0,1.4397,1.4406,1.4481,1.4445,1.4454,1.446,1.4482,1.4482,1.4495,1.4505,1.4506,1.4491,1.4517,1.4524,1.4572,1.4604,1.4544,1.4548,1.4701,1.4704,1.4707,1.475,0,0,0,0,0,0,1.4394,1.4406,1.4429,1.4446,1.4456,1.4523,1.4484,1.4484,1.4502,1.4498,1.4517,1.4519,1.4516,1.4567,1.4576,1.4608,1.455,1.4698,1.4702,1.4706,1.4746,1.4755,1.4762,0,0,0,0,0,1.439,1.4439,1.443,1.4439,1.4485,1.4525,1.4531,1.4527,1.4504,1.4528,1.4534,1.4518,1.4599,1.4572,1.4582,1.4615,1.4696,1.4701,1.4706,1.4743,1.4753,1.4762,0,0,0,0,0,0,1.4424,1.4441,1.4431,1.4486,1.4505,1.452,1.4549,1.4538,1.4563,1.4558,1.4552,1.4557,1.4608,1.4616,1.4586,1.4676,1.4644,1.4651,1.4669,1.4679,1.4687,1.4683,1.4553,0,0,0,0,0,1.4439,1.447,1.4482,1.453,1.4539,1.4543,1.456,1.4556,1.4574,1.4582,1.4592,1.4611,1.464,1.466,1.4688,1.4747,1.4752,1.4775,1.4783,1.479,1.4796,1.4829,1.484,1.4725,1.4725,1.4725,0,0,1.4468,1.448,1.45,1.4537,1.455,1.4583,1.455,1.4585,1.461,1.4587,1.4634,1.4642,1.4663,1.4717,1.4742,1.4726,1.4829,1.4796,1.4801,1.4804,1.4835,1.4846,1.4856,1.4728,1.4727,1.4727,0,0,1.4537,1.455,1.4591,1.4606,1.4627,1.4629,1.464,1.4657,1.4662,1.4709,1.4693,1.4722,1.4773,1.4789,1.4803,1.4881,1.4867,1.489,1.4932,1.4964,1.4973,1.4981,1.501,1.502,1.4896,1.4896,1.4897,0,1.4571,1.4619,1.4614,1.4652,1.4669,1.465,1.4693,1.4707,1.4736,1.4749,1.4731,1.4795,1.4808,1.4866,1.4886,1.4898,1.491,1.4888,1.4972,1.498,1.4988,1.5015,1.5025,1.4899,1.4899,1.4899,1.4898,0,1.466,1.4694,1.4725,1.4754,1.4774,1.4814,1.4816,1.4837,1.4831,1.4836,1.4884,1.4899,1.493,1.4943,1.4938,1.5002,1.4991,1.4973,1.4941,1.5002,1.5027,1.5037,1.4903,1.4902,1.4901,1.4901,0,0,1.4751,1.4778,1.4789,1.4803,1.4826,1.4852,1.4892,1.4922,1.4941,1.4962,1.4996,1.504,1.5024,1.504,1.5036,1.5065,1.5127,1.5043,1.5044,1.5059,1.5199,1.5213,1.5225,1.5118,1.512,1.5121,1.5198,0,1.4822,1.4891,1.4888,1.4952,1.4984,1.4968,1.5002,1.5021,1.5026,1.5054,1.506,1.5092,1.5068,1.5078,1.5106,1.5113,1.5155,1.5108,1.5149,1.5151,1.5145,1.5238,1.5252,1.5323,1.5207,1.5209,1.521,0,1.4914,1.4939,1.5007,1.5026,1.5039,1.507,1.5099,1.5126,1.5146,1.5148,1.5168,1.516,1.5201,1.5167,1.5224,1.5192,1.5209,1.5215,1.5218,1.5221,1.5184,1.5244,1.5346,1.5357,1.5226,1.5224,1.5223,0,1.4975,1.5025,1.5073,1.5085,1.5108,1.513,1.5141,1.516,1.5179,1.5204,1.5216,1.5246,1.5262,1.5286,1.5286,1.5262,1.5343,1.531,1.5347,1.5347,1.5364,1.5363,1.547,1.5375,1.5375,1.5375,1.5375,0,1.5055,1.5097,1.51,1.5129,1.5176,1.5173,1.522,1.5229,1.5246,1.5276,1.5264,1.5294,1.5292,1.5322,1.5323,1.537,1.5377,1.5381,1.538,1.5382,1.5381,1.5393,1.5388,1.5378,1.5377,1.5376,1.5376,0,1.513,1.5134,1.5184,1.5203,1.5209,1.5243,1.5259,1.5287,1.5291,1.5331,1.534,1.5348,1.5383,1.5385,1.5426,1.5426,1.5483,1.5477,1.5476,1.5475,1.5512,1.5509,1.563,1.5646,1.5541,1.5542,1.5543,0,1.5181,1.5213,1.5235,1.5255,1.5268,1.53,1.5319,1.5318,1.5339,1.5366,1.5391,1.5424,1.5451,1.5508,1.5517,1.5548,1.5543,1.5584,1.5548,1.5549,1.5544,1.5543,1.5546,1.5591,1.5592,1.5593,1.5593,0,1.5271,1.5272,1.53,1.533,1.5354,1.5377,1.5399,1.5416,1.5418,1.5442,1.5478,1.5499,1.554,1.5574,1.5605,1.5617,1.5606,1.5605,1.5615,1.5617,1.5615,1.5617,1.5496,1.5602,1.5601,1.56,1.56,1.56,1.5336,1.5364,1.5384,1.5417,1.5433,1.5455,1.5482,1.5491,1.5521,1.5554,1.5552,1.5592,1.5613,1.5653,1.5667,1.5698,1.5685,1.5699,1.5703,1.5707,1.5711,1.561,1.5704,1.5704,1.5703,1.5703,1.5703,0,1.5425,1.5438,1.5468,1.5499,1.5526,1.5513,1.5537,1.556,1.5595,1.5616,1.5643,1.5684,1.5717,1.573,1.5763,1.5785,1.5781,1.5794,1.5792,1.5795,1.5721,1.5709,1.5797,1.5797,1.5797,1.5797,1.5797,1.5797,1.5475,1.5522,1.5525,1.5581,1.5594,1.5632,1.5647,1.5667,1.5683,1.573,1.5758,1.5766,1.5784,1.5818,1.5848,1.5851,1.5864,1.5879,1.588,1.581,1.58,1.5791,1.578,1.5882,1.5882,1.5952,1.5952,1.5953]},{"header":{"parameterUnit":"m.s-1","parameterCategory":1,"la1":30.2991,"la2":30.254,"lo1":-89.0895,"lo2":-89.0444,"dx":0.0017,"dy":0.0017,"nx":28,"ny":28,"refTime":"2022-12-16T09:00:00:Z","depth":0,"parameterNumber":3,"parameterNumberName":"V-component_of_WINDS"},"data":[0,0,0,0,0,0,0,0,0,0,0,0,0,0,0,0,0,0,0,0,0,0,0,0,0,0,0,0,0,0,0,0,0,0,0,0,0,0,0,0,0,0,0,0,0,0,0,0,0,0,0,0,0,0,0,0,0,0,-2.9255,-2.9256,0,-2.9394,-2.9396,-2.9397,-2.9384,-2.9382,-2.938,-2.9378,-2.9523,-2.9529,-2.9534,0,0,0,0,0,0,0,0,0,0,0,0,0,-2.8979,-2.8985,-2.9255,-2.9257,-2.9258,-2.9394,-2.9396,-2.9398,-2.9384,-2.9382,-2.9379,-2.9377,-2.9521,-2.9528,-2.9535,0,0,0,0,0,0,0,0,0,0,0,0,0,-2.9107,-2.8986,-2.9254,-2.9268,-2.927,-2.9394,-2.9396,-2.9398,-2.9385,-2.9382,-2.9379,-2.9375,-2.9519,-2.9527,-2.9536,-2.9655,0,0,-2.9563,-2.9567,0,0,0,0,0,0,0,0,-2.91,-2.9117,-2.9264,-2.9267,-2.927,-2.9368,-2.9352,-2.9485,-2.9386,-2.9342,-2.9378,-2.9374,-2.9474,-2.9486,-2.952,-2.9662,-2.9668,-2.9564,-2.9569,-2.9573,-2.9575,0,0,0,0,0,0,0,-2.9091,-2.9111,-2.931,-2.9266,-2.927,-2.9268,-2.9282,-2.9377,-2.9425,-2.9345,-2.9345,-2.9361,-2.9475,-2.9511,-2.9523,-2.9671,-2.9563,-2.9571,-2.9577,-2.958,-2.9919,-2.9922,0,0,0,0,0,0,-2.9079,-2.9104,-2.9306,-2.9314,-2.9175,-2.9275,-2.9292,-2.934,-2.9423,-2.9433,-2.9364,-2.936,-2.9498,-2.9513,-2.9528,-2.9674,-2.9573,-2.9581,-2.9586,-2.9915,-2.992,-2.9924,0,0,0,0,0,0,-2.9073,-2.9097,-2.93,-2.9209,-2.9235,-2.9284,-2.9338,-2.9345,-2.9381,-2.9437,-2.9446,-2.9392,-2.9496,-2.9516,-2.9624,-2.9679,-2.9585,-2.9593,-2.9911,-2.9917,-2.9922,-2.9967,0,0,0,0,0,0,-2.9065,-2.9095,-2.914,-2.921,-2.9239,-2.9393,-2.9342,-2.935,-2.9396,-2.9392,-2.9466,-2.9475,-2.9495,-2.9611,-2.9633,-2.969,-2.96,-2.9906,-2.9913,-2.992,-2.9961,-2.9974,-2.9984,0,0,0,0,0,-2.9055,-2.9148,-2.9142,-2.9167,-2.9297,-2.9396,-2.9413,-2.9433,-2.94,-2.9447,-2.9483,-2.9473,-2.9669,-2.9622,-2.9647,-2.9707,-2.9903,-2.9911,-2.9919,-2.9956,-2.9971,-2.9984,0,0,0,0,0,0,-2.9084,-2.9157,-2.9152,-2.927,-2.9327,-2.9393,-2.9453,-2.9449,-2.9517,-2.9511,-2.9533,-2.955,-2.9659,-2.9694,-2.964,-2.9827,-2.9782,-2.9795,-2.9801,-2.9816,-2.9828,-2.9817,-2.9607,0,0,0,0,0,-2.9103,-2.9177,-2.9237,-2.9335,-2.9364,-2.9403,-2.9447,-2.9458,-2.9518,-2.9542,-2.9587,-2.9646,-2.9721,-2.977,-2.9843,-2.9966,-2.9982,-3.0019,-3.0031,-3.004,-3.0052,-3.0121,-3.0138,-2.9951,-2.9951,-2.9951,0,0,-2.9145,-2.9195,-2.924,-2.9342,-2.9388,-2.9464,-2.9424,-2.9506,-2.9563,-2.9555,-2.966,-2.9695,-2.9762,-2.9879,-2.9932,-2.9911,-3.0107,-3.0051,-3.0058,-3.0065,-3.0131,-3.0149,-3.0164,-2.9957,-2.9956,-2.9955,0,0,-2.9261,-2.9305,-2.9392,-2.9438,-2.9507,-2.9533,-2.9554,-2.9621,-2.9644,-2.9749,-2.9745,-2.9814,-2.9942,-2.9991,-3.0033,-3.0167,-3.0161,-3.019,-3.0252,-3.0318,-3.0333,-3.0346,-3.0395,-3.0412,-3.0202,-3.0202,-3.0202,0,-2.9305,-2.9419,-2.9437,-2.9521,-2.9566,-2.9562,-2.965,-2.9694,-2.9784,-2.9816,-2.9791,-2.9953,-2.9998,-3.0126,-3.0159,-3.0192,-3.0218,-3.0182,-3.0329,-3.0343,-3.0355,-3.0402,-3.042,-3.0205,-3.0205,-3.0204,-3.0204,0,-2.947,-2.9549,-2.9611,-2.9697,-2.9749,-2.9835,-2.9867,-2.9919,-2.9925,-2.9953,-3.0061,-3.0115,-3.0199,-3.023,-3.0237,-3.0359,-3.0344,-3.0324,-3.0279,-3.0376,-3.042,-3.0439,-3.021,-3.0208,-3.0208,-3.0207,0,0,-2.9608,-2.9703,-2.9725,-2.9764,-2.984,-2.9902,-2.9988,-3.0069,-3.0113,-3.0174,-3.0248,-3.0357,-3.0339,-3.0386,-3.0398,-3.0457,-3.0561,-3.043,-3.0431,-3.0453,-3.07,-3.0716,-3.0736,-3.0557,-3.056,-3.0563,-3.0695,0,-2.9732,-2.9883,-2.9902,-3.0036,-3.011,-3.0107,-3.0182,-3.0237,-3.0266,-3.0334,-3.0366,-3.0443,-3.0413,-3.0442,-3.0499,-3.0536,-3.0611,-3.0527,-3.0626,-3.0629,-3.061,-3.0759,-3.0776,-3.0898,-3.0712,-3.0715,-3.0717,0,-2.9897,-2.9962,-3.0104,-3.017,-3.0202,-3.0268,-3.0345,-3.0409,-3.0472,-3.0489,-3.0542,-3.0547,-3.0637,-3.0587,-3.0712,-3.0654,-3.0696,-3.072,-3.0725,-3.0736,-3.068,-3.0775,-3.0937,-3.0956,-3.0745,-3.0743,-3.0741,0,-2.9984,-3.0108,-3.0209,-3.0243,-3.0322,-3.0369,-3.0404,-3.0464,-3.0511,-3.0578,-3.0609,-3.0686,-3.0728,-3.0788,-3.0814,-3.0775,-3.0937,-3.089,-3.0955,-3.0955,-3.099,-3.0988,-3.1162,-3.1016,-3.1015,-3.1015,-3.1014,0,-3.0121,-3.0208,-3.0249,-3.0312,-3.0409,-3.0431,-3.0527,-3.0561,-3.0614,-3.0683,-3.0685,-3.075,-3.078,-3.0851,-3.0872,-3.0972,-3.0991,-3.1008,-3.1013,-3.1009,-3.1007,-3.1037,-3.103,-3.102,-3.1019,-3.1018,-3.1017,0,-3.0236,-3.0267,-3.0377,-3.0442,-3.0461,-3.053,-3.0587,-3.0648,-3.0676,-3.0764,-3.0786,-3.0831,-3.0913,-3.0945,-3.1046,-3.106,-3.1177,-3.1174,-3.1156,-3.1157,-3.1221,-3.1215,-3.1422,-3.1451,-3.1284,-3.1286,-3.1287,0,-3.0322,-3.0388,-3.0461,-3.0507,-3.0544,-3.0618,-3.0667,-3.0691,-3.0741,-3.0818,-3.087,-3.0952,-3.1019,-3.1152,-3.1194,-3.1272,-3.1272,-3.1339,-3.1284,-3.1278,-3.1274,-3.1271,-3.1278,-3.135,-3.1351,-3.1353,-3.1354,0,-3.0471,-3.0483,-3.0552,-3.0627,-3.0685,-3.0745,-3.0804,-3.0842,-3.0875,-3.0932,-3.1016,-3.1068,-3.1172,-3.1254,-3.1334,-3.1371,-3.1369,-3.1371,-3.139,-3.1387,-3.1374,-3.1383,-3.1185,-3.1366,-3.1365,-3.1364,-3.1363,-3.1363,-3.0575,-3.0634,-3.0694,-3.0772,-3.0818,-3.0873,-3.0934,-3.0969,-3.104,-3.1125,-3.1135,-3.1226,-3.1288,-3.1395,-3.1436,-3.1508,-3.149,-3.1518,-3.1525,-3.1532,-3.1537,-3.1362,-3.1522,-3.1522,-3.1522,-3.1521,-3.1521,0,-3.0725,-3.0763,-3.0834,-3.0916,-3.0977,-3.0968,-3.1033,-3.1085,-3.1165,-3.1222,-3.1288,-3.1386,-3.1465,-3.1514,-3.1594,-3.1643,-3.1644,-3.1663,-3.166,-3.1669,-3.1548,-3.1523,-3.1661,-3.1661,-3.1661,-3.1661,-3.1661,-3.1661,-3.081,-3.0911,-3.093,-3.1053,-3.1092,-3.118,-3.1218,-3.1269,-3.1315,-3.1423,-3.1489,-3.152,-3.1574,-3.1658,-3.1732,-3.1744,-3.1774,-3.1795,-3.1806,-3.1692,-3.1678,-3.1664,-3.1641,-3.1801,-3.1801,-3.1922,-3.1923,-3.1924]}]]